Terminal Aerodrome Forecast
Issued by NWS Pittsburgh, PA

Current Version | Previous Version | Graphics & Text | Print | Product List | Glossary On
Versions: 1 2 3 4 5 6 7 8 9 10 11 12 13 14 15 16 17 18 19 20 21 22 23 24 25 26 27 28 29 30 31 32
000
FTUS41 KPBZ 260500
TAFPIT
TAF
KPIT 260525Z 2606/2712 02003KT P6SM BKN150
     FM261300 01004KT 6SM -SN OVC035
     FM261600 02005KT 1SM -SN BR OVC007
     FM261900 35004KT 3SM -SN OVC010
     FM262200 33003KT P6SM OVC010=

USA.gov is the U.S. government's official web portal to all federal, state and local government web resources and services.